User: anonymous   Login
Location: Newark
(51.1667°N, 4.4833°E)
Time: 13:14:34
(UTC+00:00)
Language:

UWE-3 - Orbit

View from above orbital plane
View from above orbital plane
View from above satellite
View from above satellite

Ground track
Ground track

The orbit data is extracted from the following two-line orbital elements,

1 39446U 13066AG  19339.90566558 +.00000156 +00000-0 +27462-4 0  9998
2 39446 097.5869 335.5625 0068950 223.7650 135.8084 14.78460428323825
Epoch (UTC): 05 December 2019 21:44:09
Eccentricity: 0.0068950
inclination: 97.5869°
perigee height: 586 km
apogee height: 682 km
right ascension of ascending node: 335.5625°
argument of perigee: 223.7650°
revolutions per day: 14.78460428
mean anomaly at epoch: 135.8084°
orbit number at epoch: 32382

The dashed part of the orbit path shows where the satellite is in the earth's shadow,  

DLR